Flag for Sierra Leone

Past Weather in Koidu, Sierra Leone — Yesterday and Last 2 Weeks

Now
75 °F

Passing clouds.


Feels Like: 74 °F
Forecast: 85 / 71 °F
Wind: No wind

Location: Roberts Field

Current Time: Jul 7, 2020 at 1:42:21 am

Latest Report: Jul 6, 2020 at 11:00 pm


Visibility: N/A

Pressure: 29.92 "Hg

Humidity: 94%

Dew Point: 73 °F

Location of KoiduLocation

Past Weather in Koidu — Graph

°F

Koidu Temperature Yesterday

Maximum temperature yesterday: 88 °F (at 1:00 pm)
Minimum temperature yesterday: 75 °F (at 4:30 am)
Average temperature yesterday: 80 °F

High & Low Weather Summary for the Past Weeks

 TemperatureHumidityPressure
High88 °F (Jul 6, 1:00 pm)100% (Jun 24, 7:00 am)29.98 "Hg (Jun 24, 7:00 am)
Low75 °F (Jun 22, 6:00 am)66% (Jul 6, 1:00 pm)29.80 "Hg (Jun 23, 6:00 pm)
Average79 °F88%29.90 "Hg
* Reported Jun 22 6:00 am — Jul 6 11:00 pm, Koidu. Weather by CustomWeather, © 2020

Note: Actual official high and low records may vary slightly from our data, if they occured in-between our weather recording intervals... More about our weather records

Koidu Weather History for the Previous 24 Hours

Scroll right to see more
 ConditionsComfort  
Time TempWeatherWind HumidityBarometerVisibility
11:00 pm
Mon, Jul 6
75 °FPassing clouds.No wind94%29.92 "HgN/A
10:30 pm77 °FPassing clouds.No wind89%29.92 "HgN/A
10:00 pm75 °FPassing clouds.No wind94%29.92 "HgN/A
9:30 pm75 °FPassing clouds.No wind94%29.89 "HgN/A
9:00 pm75 °FPassing clouds.No wind94%29.86 "HgN/A
8:30 pm77 °FPassing clouds.No wind89%29.86 "HgN/A
8:00 pm77 °FPassing clouds.3 mph89%29.86 "HgN/A
7:00 pm81 °FPartly sunny.6 mph79%29.86 "HgN/A
6:30 pm81 °FPartly sunny.10 mph79%29.86 "HgN/A
6:00 pm82 °FPartly sunny.10 mph74%29.86 "HgN/A
5:30 pm82 °FPartly sunny.10 mph74%29.86 "HgN/A
5:00 pm82 °FPartly sunny.10 mph74%29.86 "HgN/A
4:30 pm84 °FPartly sunny.9 mph70%29.86 "HgN/A
4:00 pm84 °FPartly sunny.8 mph74%29.92 "HgN/A
3:30 pm84 °FPartly sunny.13 mph74%29.92 "HgN/A
2:30 pm84 °FPartly sunny.13 mph70%29.92 "HgN/A
2:00 pm84 °FPartly sunny.13 mph70%29.92 "HgN/A
1:30 pm88 °FPartly sunny.12 mph66%29.92 "HgN/A
1:00 pm88 °FPartly sunny.12 mph66%29.92 "HgN/A
12:30 pm82 °FPartly sunny.10 mph79%29.95 "HgN/A
12:00 pm82 °FPartly sunny.10 mph79%29.95 "HgN/A
11:30 am86 °FPartly sunny.9 mph70%29.95 "HgN/A
11:00 am84 °FPartly sunny.6 mph70%29.95 "HgN/A
10:30 am82 °FPartly sunny.5 mph79%29.95 "HgN/A
10:00 am82 °FPartly sunny.6 mph84%29.95 "HgN/A
9:00 am81 °FPartly sunny.No wind89%29.92 "HgN/A
8:30 am81 °FPartly sunny.No wind89%29.92 "HgN/A
8:00 am77 °FPartly sunny.No wind94%29.92 "HgN/A
7:30 am75 °FPassing clouds.No wind94%29.92 "HgN/A
7:00 am75 °FPassing clouds.No wind94%29.92 "HgN/A
6:30 am75 °FPassing clouds.No wind94%29.92 "HgN/A
6:00 am75 °FPassing clouds.3 mph94%29.92 "HgN/A
5:30 am75 °FPassing clouds.3 mph94%29.92 "HgN/A
5:00 am75 °FPassing clouds.3 mph94%29.89 "HgN/A
4:30 am75 °FPassing clouds.3 mph94%29.89 "HgN/A
Weather by CustomWeather, © 2020

See weather overview